SCP
0 0 0 0 0 0 0 0 0 0 0 0 0 0 0 0 0 0 0 0 0 0 0 0 0 0 0 0 0 0 0 0 0 0 0 0 0 0 0 0 0 0 0
0 0 0 0 0 0 0 0 0 0 0 0 0 0 0 0 0 0 0 0 0 0 0 0 0 0 0 0 0 0 0 0 0 0 0 0 0 0 0 0 0 0 0
0 0 0 0 0 0 0 0 0 0 0 0 0 0 0 0 0 0 0 0 0 0 0 0 0 0 0 0 0 0 0 0 0 0 0 0 0 0 0 0 0 0 0
0 0 0 0 0 0 0 0 0 0 0 0 0 0 0 0 0 0 0 0 0 0 0 0 0 0 0 0 0 0 0 0 0 0 0 0 0 0 0 0 0 0 0
0 0 0 0 0 0 0 0 0 0 0 0 0 0 0 0 0 0 0 0 0 0 0 0 0 0 0 0 0 0 0 0 0 0 0 0 0 0 0 0 0 0 0
0 0 0 0 0 0 0 0 0 0 0 0 0 0 0 0 0 0 0 0 0 0 0 0 0 0 0 0 0 0 0 0 0 0 0 0 0 0 0 0 0 0 0
0 0 0 0 0 0 0 0 0 0 0 0 0 0 0 0 0 0 0 0 0 0 0 0 0 0 0 0 0 0 0 0 0 0 0 0 0 0 0 0 0 0 0
0 0 0 0 0 0 0 0 0 0 0 0 0 -0 -0 0 0 0 0 0 0 0 0 0 0 0 0 0 0 0 0 0 0 0 0 0 0 0 0 0 0 0 0
0 0 0 0 0 0 0 0 0 0 0 0 0 -0 -0 -0 0 0 0 0 0 0 0 0 0 0 0 0 0 0 0 0 0 0 0 0 0 0 0 0 0 0 0
0 0 0 0 0 0 0 0 0 0 0 0 0 -0 -0 -0 0 0 0 0 0 0 0 0 0 0 0 0 0 0 0 0 0 0 0 0 0 0 0 0 0 0 0
0 0 0 0 0 0 0 0 0 0 0 0 0 0 -0 -0 0 0 0 0 0 0 0 0 0 0 0 0 0 0 0 0 0 0 0 0 0 0 0 0 0 0 0
0 0 0 0 0 0 0 0 0 0 0 0 0 0 0 0 0 0 0 0 0 0 0 0 0 0 0 0 0 0 0 0 0 0 0 0 0 0 0 0 0 0 0
0 0 0 0 0 0 0 0 0 0 0 0 0 0 0 0 0 0 0 0 0 0 0 0 0 0 0 0 0 0 0 0 0 0 0 0 0 0 0 0 0 0 0
0 0 0 0 0 0 0 0 0 0 0 0 0 0 0 0 0 0 0 0 0 0 0 0 0 0 0 0 0 0 0 0 0 0 0 0 0 0 0 0 0 0 0
0 0 0 0 0 0 0 0 0 0 0 0 0 0 0 0 0 0 0 0 0 0 0 0 0 0 0 0 0 0 0 0 0 0 0 0 0 0 0 0 0 0 0
0 0 0 0 0 0 0 0 0 0 0 0 0 0 0 0 0 0 0 0 0 0 0 0 0 0 0 0 0 0 0 0 0 0 0 0 0 0 0 0 0 0 0
0 0 0 0 0 0 0 0 0 0 0 0 0 0 0 0 0 0 0 0 0 0 0 0 0 0 0 0 0 0 0 0 0 0 0 0 0 0 0 0 0 0 0
0 0 0 0 0 0 0 0 0 0 0 0 0 0 0 0 0 0 0 0 0 0 0 0 0 0 0 0 0 0 0 0 0 0 0 0 0 0 0 0 0 0 0
0 0 0 0 0 0 0 0 0 0 0 0 0 0 0 0 0 0 0 0 0 0 0 0 0 0 0 0 0 0 0 0 0 0 0 0 0 0 0 0 0 0 0
0 0 0 0 0 0 0 0 0 0 0 0 0 0 0 0 0 0 0 0 0 0 0 0 0 0 0 0 0 0 0 0 0 0 0 0 0 0 0 0 0 0 0
0 0 0 0 0 0 0 0 0 0 0 0 0 0 0 0 0 0 0 0 0 0 0 0 0 0 0 0 0 0 0 0 0 0 0 0 0 0 0 0 0 0 0
0 0 0 0 0 0 0 0 0 0 0 0 0 0 0 0 0 0 0 0 0 0 0 0 0 0 0 0 0 0 0 0 0 0 0 0 0 0 0 0 0 0 0
0 0 0 0 0 0 0 0 0 0 0 0 0 0 0 0 0 0 0 0 0 -0 0 0 0 0 0 0 0 0 0 0 0 0 0 0 0 0 0 0 0 0 0
0 0 0 0 0 0 0 0 0 0 0 0 0 0 0 0 0 0 0 0 0 0 0 0 0 0 0 0 0 0 0 0 0 0 0 0 0 0 0 0 0 0 0
0 0 0 0 0 0 0 0 0 0 0 0 0 0 0 0 0 0 0 0 0 0 0 0 0 0 0 0 0 0 0 0 0 0 0 0 0 0 0 0 0 0 0
0 0 0 0 0 0 0 0 0 0 0 0 0 0 0 0 0 0 0 0 0 0 0 0 0 0 0 0 0 0 0 0 0 0 0 0 0 0 0 0 0 0 0
Wind_Speed
2 1 1 1 1 1 1 1 1 1 1 0 0 1 1 2 2 1 1 1 1 1 1 0 0 0 1 1 2 2 1 2 2 3 2 1 1 1 1 1 2 2 2
1 1 1 1 1 1 1 1 1 1 2 1 1 1 1 1 2 2 1 1 1 1 1 1 1 1 1 1 2 2 1 1 1 3 3 1 0 0 1 1 2 2 1
3 2 1 1 1 1 2 2 2 2 2 1 1 1 1 1 2 2 2 2 2 2 2 2 1 1 2 2 3 3 2 3 1 1 3 3 3 1 0 1 1 1 1
2 2 2 2 2 2 2 2 2 2 2 2 2 2 2 3 3 2 2 2 2 2 2 2 2 2 2 3 3 3 3 4 3 1 0 1 2 3 1 1 1 1 1
3 2 2 3 2 2 2 2 2 2 2 2 3 3 3 3 2 2 3 3 2 3 3 2 2 2 2 3 3 3 3 3 3 3 1 1 1 1 3 2 2 1 2
2 2 2 2 2 2 2 2 2 3 3 3 3 4 4 4 3 4 3 3 2 2 3 3 3 3 3 3 4 4 4 3 3 3 3 3 3 2 2 3 3 2 2
2 2 2 2 3 3 3 3 3 4 4 4 4 5 5 5 6 5 4 3 3 3 4 3 3 3 3 4 4 4 4 4 4 3 3 3 3 2 2 2 2 1 1
2 2 3 3 3 4 4 3 4 5 4 5 5 4 5 4 4 5 4 4 4 4 4 4 4 4 4 4 4 3 4 4 4 4 4 3 3 2 3 3 3 2 1
3 3 3 3 3 4 4 4 4 5 5 5 4 4 4 4 5 4 4 3 4 3 3 4 4 4 4 5 4 4 5 4 4 4 4 3 3 2 2 3 3 4 3
4 4 4 4 4 4 4 4 4 5 5 5 4 4 4 5 5 4 5 4 4 4 4 4 4 5 5 5 5 4 5 5 5 4 5 4 3 3 3 3 2 2 3
4 4 5 5 5 4 4 4 4 4 4 4 4 4 4 4 5 5 5 5 4 4 5 5 5 5 6 6 5 6 6 6 5 5 6 6 4 4 3 3 3 2 2
4 4 5 5 5 5 5 5 4 4 4 4 3 3 4 4 5 5 5 5 5 5 5 5 6 6 6 6 7 7 7 7 7 7 7 6 5 5 4 4 4 3 3
5 5 5 5 6 6 6 5 5 5 4 3 3 4 4 4 5 5 5 5 5 5 5 5 6 6 7 7 7 7 7 8 8 8 8 7 7 6 5 5 4 4 3
5 6 6 6 6 6 6 6 5 5 4 3 3 4 4 4 4 4 4 5 5 5 6 6 6 7 7 7 8 8 8 8 7 8 8 8 8 8 7 6 6 4 4
7 7 7 7 7 7 7 6 6 5 5 4 4 4 4 4 4 4 4 4 5 5 5 6 6 6 6 7 9 9 9 8 7 7 8 8 9 10 8 6 6 5 5
8 9 9 8 8 7 7 7 7 6 5 4 4 4 4 3 3 3 3 3 4 4 4 5 6 6 6 9 12 9 8 8 8 8 8 8 9 10 11 10 9 8 7
8 9 9 8 8 8 7 7 7 6 5 4 4 4 4 4 4 4 3 3 3 3 4 4 5 5 6 10 11 11 7 7 7 8 7 6 7 9 7 8 9 8 9
7 8 8 9 8 7 7 7 6 5 5 5 4 4 4 4 4 4 4 3 3 3 3 3 3 4 5 8 8 9 6 6 7 7 8 8 7 8 8 7 6 6 6
6 7 7 7 7 7 7 7 6 5 5 6 6 5 4 4 4 4 4 3 3 3 3 3 3 3 4 6 7 7 4 5 6 6 6 7 7 9 10 8 7 6 5
6 6 7 7 7 7 7 6 6 6 6 6 6 5 5 4 4 4 4 4 3 3 3 3 2 3 3 5 5 5 3 4 4 4 5 8 8 9 10 8 8 7 6
7 6 6 6 7 7 6 6 7 7 7 6 6 6 5 4 4 3 3 3 3 3 3 3 3 2 3 3 3 4 2 3 3 3 3 4 7 9 9 8 7 8 6
7 6 6 7 7 7 6 7 8 8 7 6 6 6 6 5 4 4 4 3 3 3 3 3 4 3 3 3 2 3 3 3 3 3 2 3 6 7 8 7 7 8 6
6 6 6 7 7 7 6 7 8 8 7 7 7 7 6 5 5 4 4 3 3 2 3 3 3 3 3 3 4 4 3 2 1 2 3 3 5 6 4 5 6 5 4
5 5 6 7 8 8 7 6 7 7 6 7 7 6 6 6 6 5 4 3 3 3 3 3 3 3 3 3 2 2 1 2 1 1 1 1 2 2 2 2 2 2 3
5 5 5 6 7 7 7 8 7 7 6 6 6 6 5 5 5 5 4 4 3 4 4 3 2 2 3 4 4 2 1 1 1 1 1 1 1 1 1 1 1 1 1
5 5 5 6 7 7 7 7 7 6 6 6 5 4 4 4 4 4 5 7 7 8 8 8 6 4 5 6 5 4 3 2 1 0 1 1 1 1 1 1 1 1 2
Wind_Direction
235 196 172 157 144 156 165 182 172 201 186 266 291 303 294 304 296 276 252 224 221 245 219 209 206 186 177 181 153 142 131 150 142 122 108 60 73 104 119 124 128 118 111
255 217 169 138 173 201 204 205 208 221 228 245 255 249 254 267 271 265 263 233 212 223 219 200 201 206 184 178 160 137 152 166 138 138 142 128 84 49 118 135 139 139 128
236 240 229 225 235 250 226 239 245 250 251 246 260 313 305 294 290 284 279 256 223 213 221 216 203 211 193 192 185 165 164 176 181 151 149 156 185 178 229 160 144 139 146
251 242 245 246 246 263 265 256 250 254 253 229 227 231 237 246 254 257 258 262 234 215 214 215 210 214 204 197 193 180 182 173 178 191 123 150 147 156 169 232 191 169 170
238 243 259 257 276 288 282 277 267 267 254 237 233 237 244 246 253 255 242 247 238 224 214 216 210 218 213 208 193 185 187 191 184 178 170 125 110 129 157 195 204 215 215
272 282 294 300 301 304 298 294 273 274 265 247 238 235 235 237 243 249 235 240 235 226 217 219 214 221 218 213 202 193 191 195 196 187 177 170 167 173 163 181 193 209 228
286 300 313 312 307 300 295 291 281 270 261 251 241 236 236 230 230 236 226 229 233 228 218 218 220 225 223 213 203 196 199 196 197 201 196 193 193 183 171 168 191 224 253
310 305 302 301 300 294 293 286 278 273 258 251 246 237 236 233 236 234 227 227 232 230 217 214 223 231 221 211 204 203 206 201 203 215 206 198 200 196 184 175 171 196 247
317 315 320 318 305 295 294 288 279 279 267 258 250 239 232 233 237 239 227 230 233 233 216 213 221 230 220 209 206 209 209 203 209 215 208 206 204 201 205 187 183 183 204
333 329 323 318 310 299 299 301 286 278 278 269 253 252 239 239 239 237 228 228 231 234 223 222 222 224 218 209 208 211 211 205 213 210 202 208 203 201 206 195 200 204 200
325 322 322 319 317 315 308 305 300 292 284 273 264 260 250 244 242 239 232 228 232 234 230 227 227 225 221 213 212 216 210 209 212 209 202 208 201 203 205 198 197 208 204
324 324 326 328 328 325 319 307 304 300 288 280 271 265 263 252 246 241 237 232 232 234 234 231 231 228 221 214 213 217 211 209 210 207 203 207 201 209 207 201 206 209 209
335 338 337 331 325 321 317 313 310 306 304 295 283 275 271 261 250 246 241 235 233 235 235 232 231 230 224 219 220 220 217 214 213 207 204 204 198 210 210 207 209 212 216
331 334 330 324 322 321 320 318 314 310 308 300 288 278 276 271 268 259 245 239 235 236 234 235 235 234 229 224 223 221 219 217 215 212 207 205 202 208 209 210 211 209 210
339 333 327 323 322 325 325 323 318 314 312 300 291 284 284 286 284 272 254 244 238 240 237 237 240 238 230 224 221 221 218 215 216 215 211 210 209 213 213 212 206 201 202
333 332 332 329 326 326 325 325 324 323 318 307 303 307 310 305 296 285 271 255 246 246 240 241 242 240 240 238 234 227 218 214 213 216 214 214 214 219 223 226 222 211 201
327 329 329 328 325 323 322 321 320 323 325 319 317 320 316 311 309 305 296 278 266 255 250 246 240 243 248 245 239 234 223 213 213 215 214 217 216 214 209 221 228 229 230
326 326 327 326 324 325 329 328 326 330 331 330 330 324 322 316 316 309 300 294 285 275 268 261 252 253 262 260 250 240 226 216 218 216 211 211 212 209 202 200 210 220 226
318 319 321 320 324 329 332 333 333 337 338 334 330 327 325 321 320 315 311 306 301 295 282 272 264 261 280 279 264 241 210 211 217 219 215 212 209 213 210 203 206 215 227
330 330 332 333 335 333 336 341 340 344 339 331 328 329 328 323 318 314 314 315 314 307 300 301 293 276 278 285 278 246 208 212 214 215 216 220 217 214 213 205 200 210 215
333 338 339 339 335 334 343 347 347 342 332 331 334 335 335 329 323 324 325 329 332 337 337 331 328 316 297 290 284 258 221 211 209 210 211 211 219 221 219 215 207 214 208
340 345 344 341 339 344 353 353 346 336 337 341 343 344 344 340 344 347 345 346 348 348 349 353 348 345 334 329 302 272 249 228 201 208 213 210 218 223 224 222 219 223 219
336 340 341 340 343 350 358 351 337 339 345 350 350 349 350 353 355 354 350 351 357 354 348 351 348 345 348 341 328 310 287 255 226 204 199 219 219 219 222 223 227 228 209
334 337 344 345 342 345 349 343 337 342 348 351 348 350 355 358 1 359 357 359 355 351 347 346 341 338 340 337 331 319 294 279 272 263 206 222 224 217 208 225 241 230 206
332 337 341 337 334 339 344 344 344 346 350 351 350 353 357 358 359 2 3 359 360 351 347 341 327 331 334 335 333 334 309 250 207 151 82 96 128 158 177 180 185 199 185
331 336 338 336 334 338 341 341 343 345 348 352 354 353 352 355 358 359 360 4 3 2 5 5 358 346 351 350 350 352 4 10 37 98 114 123 135 165 191 201 205 200 189